Theta_e
309 309 309 308 308 307 307 307 307 307 307 306 306 306 306 306 306 306 306 306 306 306 306 306 306 306 305 305 305 305 305 305 305 305 305 306 306 306 306 306 306 306 306 306 306 305 305 306 306 306 306 305 305 305 305 305 304 304 304 303 303 302 301 300 299 302 304 303 303 304 303 303 302 301 301 301 301 301 302 302 302 302 301 301 301
309 309 309 308 308 307 307 307 307 306 306 306 306 306 306 306 305 305 305 305 305 305 305 305 305 305 305 305 305 305 305 305 305 305 305 305 305 305 306 306 306 306 306 306 306 306 306 306 306 306 306 306 306 305 305 305 305 304 304 304 304 304 303 302 301 301 304 304 303 303 303 303 303 303 302 302 302 301 301 302 302 302 302 301 301
308 308 308 308 308 307 307 307 307 306 307 307 306 306 306 306 306 305 305 305 305 305 305 305 305 304 304 304 304 304 305 305 305 305 305 305 305 305 305 305 305 306 306 306 306 305 305 306 306 306 306 306 306 306 305 305 305 305 305 305 304 304 304 303 302 302 303 305 304 303 303 303 303 303 303 302 302 302 302 302 302 302 302 302 302
307 307 307 307 307 307 307 307 307 307 307 306 306 306 306 306 306 306 305 305 305 305 305 305 305 305 304 304 304 304 304 304 304 304 304 304 304 305 305 305 305 305 305 305 306 306 305 305 306 306 306 306 306 306 306 306 306 305 305 305 305 305 305 304 304 303 303 304 304 304 303 303 303 303 302 302 302 302 302 302 302 303 303 303 303
306 306 306 306 306 306 306 306 306 306 306 306 306 306 306 306 306 306 305 305 305 305 305 305 305 305 305 305 305 304 304 304 304 304 304 304 304 304 304 305 305 305 305 305 305 305 305 305 306 305 305 305 306 306 306 306 306 306 306 306 305 305 305 305 304 304 303 303 304 305 304 303 303 303 302 301 301 302 302 302 302 303 303 303 303
306 306 306 306 306 306 305 305 305 305 305 305 306 305 306 306 305 305 305 305 305 305 305 305 305 304 304 304 304 304 304 304 304 304 304 304 303 304 304 304 304 304 304 304 304 304 304 305 305 305 305 305 305 306 306 306 306 306 306 306 306 305 305 305 305 304 304 304 304 305 304 304 303 303 303 302 301 301 302 302 302 302 303 303 303
306 306 306 306 305 305 305 305 305 305 305 304 304 305 305 305 305 305 304 304 304 304 304 304 304 304 304 304 304 304 304 304 304 304 304 304 304 303 303 303 303 303 304 304 304 304 304 304 304 304 304 305 305 305 305 305 305 306 306 306 306 305 305 305 305 304 304 304 304 304 305 304 304 304 303 302 300 300 300 300 301 303 303 303 303
306 306 306 306 305 305 304 304 304 304 304 304 304 304 304 304 304 304 304 304 304 304 304 304 304 304 304 304 304 303 303 303 304 304 304 304 303 303 303 303 302 302 303 303 303 304 304 304 304 304 304 304 304 305 305 305 305 305 305 306 305 305 305 305 305 305 304 304 304 305 305 304 304 304 303 301 300 301 302 301 302 303 303 303 303
305 305 305 305 304 304 304 304 304 304 304 304 304 304 304 304 304 304 304 304 304 304 304 304 304 304 304 304 304 304 304 304 304 304 303 303 303 303 302 302 302 302 302 302 303 303 303 304 304 304 304 304 304 304 304 304 304 304 305 305 305 305 305 305 304 304 304 304 304 304 304 304 304 304 304 303 303 303 303 302 301 302 303 302 302
304 304 304 304 304 303 303 303 304 304 304 304 304 304 304 304 304 304 304 304 305 304 305 305 305 305 304 304 304 304 304 304 304 304 303 302 302 302 302 301 301 301 302 302 302 302 303 303 304 304 304 304 304 304 304 304 304 304 304 304 304 304 304 304 304 304 304 304 304 304 304 304 305 305 304 304 304 304 303 301 301 302 301 301 301
303 303 303 303 303 303 303 303 304 304 304 304 304 305 305 305 304 304 304 304 304 304 305 305 305 304 304 304 304 304 304 304 305 304 303 302 302 301 301 301 301 301 301 301 301 301 302 302 302 303 303 304 304 304 304 304 304 304 304 304 303 303 303 303 304 304 304 304 304 304 304 304 305 305 305 305 304 304 303 302 302 301 300 300 301
303 303 303 303 303 303 303 303 304 304 304 304 304 305 305 305 305 305 304 305 305 305 305 304 305 304 304 304 304 304 304 305 305 305 304 303 302 301 301 300 300 300 300 300 301 301 301 301 302 302 302 303 303 304 304 304 304 304 303 303 302 302 302 303 303 303 303 304 304 304 304 305 305 305 305 305 305 304 304 303 302 301 300 300 300
303 303 303 303 303 303 303 303 303 304 304 304 304 304 305 305 305 304 304 304 304 304 304 304 304 304 304 304 304 304 305 305 305 305 304 303 302 301 301 301 301 301 301 301 301 301 301 301 301 301 301 301 302 302 303 303 303 303 303 302 302 301 301 302 302 302 302 303 303 304 304 304 305 305 305 305 305 304 304 303 302 301 301 300 301
302 302 303 303 303 303 303 303 303 303 303 304 304 304 304 304 304 304 304 304 304 304 304 304 304 304 304 304 304 304 305 305 305 305 304 303 302 301 301 301 301 302 302 302 302 302 302 301 301 301 301 301 301 301 301 302 302 303 303 302 302 302 301 301 301 301 302 302 302 303 304 304 304 305 305 305 305 304 304 304 303 302 302 301 302
301 301 302 302 302 302 302 302 303 303 303 303 303 303 303 303 303 303 303 303 303 303 303 303 303 304 303 303 303 303 304 304 304 304 304 303 303 302 302 302 302 302 303 303 303 303 302 302 301 302 302 302 302 301 301 301 301 301 301 301 302 301 301 301 301 301 301 301 302 303 304 304 304 305 305 305 305 305 304 304 304 302 301 300 299
300 300 301 301 301 301 301 301 301 301 302 302 302 302 302 303 303 302 302 302 303 303 303 303 303 303 303 303 303 303 303 303 303 303 303 303 303 303 302 302 302 303 303 303 303 303 302 302 302 302 302 302 302 301 300 300 299 300 300 300 300 300 301 301 301 300 301 301 301 302 303 303 304 304 304 304 305 304 304 303 302 300 299 298 298
300 300 300 300 299 299 299 299 300 300 300 300 300 301 301 301 301 301 301 301 302 302 302 302 302 302 302 302 302 302 303 303 303 303 303 302 302 302 302 302 302 302 303 303 303 302 302 302 302 301 301 302 301 299 299 298 298 298 299 299 299 299 300 300 300 300 300 300 300 301 301 302 302 302 303 303 303 303 302 301 301 299 298 298 298
298 298 298 298 298 298 298 298 298 298 298 298 298 298 299 299 299 299 299 299 299 300 300 300 300 300 301 301 301 301 301 302 301 302 302 301 301 302 302 302 302 302 302 303 302 301 301 301 301 301 301 302 300 298 297 297 297 297 297 298 298 298 300 300 299 299 299 299 299 300 300 301 301 301 302 302 302 301 300 301 301 299 298 298 298
295 295 295 295 296 296 296 295 295 295 295 295 295 295 295 295 296 296 296 296 296 296 297 297 297 298 298 298 298 298 299 299 299 299 299 299 300 300 300 300 301 301 302 302 302 302 302 301 301 301 301 301 300 298 297 296 296 296 297 297 297 298 300 299 298 298 298 298 299 299 299 300 300 300 301 301 301 301 300 300 301 299 298 299 299
292 292 292 291 291 291 291 292 292 292 291 291 291 291 291 291 291 292 292 292 292 293 293 293 293 293 294 294 295 295 295 296 296 296 296 296 296 296 297 298 298 298 299 299 300 301 301 301 302 301 301 301 301 299 297 296 296 296 296 296 296 298 299 298 297 297 298 297 298 298 298 299 299 299 300 300 301 301 300 300 300 299 299 299 298
290 289 288 288 288 288 288 288 288 288 287 287 287 288 288 288 287 288 288 288 288 289 289 289 289 290 290 290 291 291 291 292 292 292 292 292 292 292 293 294 294 295 295 296 296 297 298 298 299 299 299 299 299 298 297 296 295 295 296 296 296 296 297 297 296 297 297 297 297 297 297 298 298 298 299 299 300 300 301 301 301 300 300 299 299
287 286 285 286 286 286 285 285 285 285 285 285 286 286 286 285 285 286 286 286 286 286 287 287 287 287 288 288 288 289 288 289 289 289 289 289 289 290 290 291 291 292 292 292 292 293 294 295 296 296 296 296 296 296 296 296 295 295 295 296 296 296 295 296 296 296 296 296 296 296 297 297 297 297 298 298 298 299 300 300 301 301 300 301 301
284 284 284 284 284 284 284 284 284 284 284 284 285 285 284 284 284 284 284 284 284 284 285 285 285 285 286 287 286 286 286 286 287 287 287 287 287 288 289 290 290 291 292 292 290 290 291 292 292 293 293 293 294 295 295 295 294 294 295 295 295 295 295 295 295 295 295 296 296 296 296 296 297 297 297 297 297 298 298 299 300 300 300 301 302
283 283 283 283 283 283 283 283 283 283 283 283 283 284 283 283 283 283 283 283 282 282 282 283 284 284 285 284 283 283 283 284 285 285 285 286 286 287 288 289 290 290 291 291 290 289 289 290 290 290 290 290 292 293 294 294 295 295 295 295 295 295 294 294 294 294 295 295 295 295 295 296 296 296 296 296 296 297 297 297 298 298 299 299 301
283 283 283 282 282 282 282 282 282 282 282 281 282 282 282 282 282 282 281 281 281 281 281 281 282 283 282 281 281 282 282 282 283 284 285 286 286 287 288 288 287 287 288 288 288 288 288 288 288 288 288 288 289 291 292 293 294 295 295 295 295 294 294 294 294 294 294 294 295 295 295 296 296 296 296 296 296 296 296 296 296 297 297 297 298
282 282 282 282 281 281 281 281 281 281 281 280 280 280 280 281 281 281 280 280 280 280 280 280 281 281 280 280 280 281 280 280 282 284 285 286 287 287 287 286 285 286 287 288 288 288 287 286 286 287 288 288 289 289 290 291 292 293 294 295 295 294 294 294 294 294 294 294 295 295 296 296 296 295 295 295 295 295 296 295 296 296 296 296 296
281 281 281 281 281 280 280 280 280 280 280 279 279 279 280 280 280 280 280 279 279 279 279 279 279 279 280 280 280 279 279 280 282 284 285 285 284 284 284 284 285 287 287 287 287 287 286 284 284 285 285 286 287 288 289 289 290 291 292 293 294 294 294 294 294 294 294 294 295 295 296 296 295 295 295 295 295 295 295 295 295 295 295 295 294
280 280 280 280 280 279 279 279 279 278 278 278 278 278 279 279 279 279 279 279 278 278 278 278 279 279 279 279 279 279 280 281 282 282 282 281 281 282 282 283 284 284 282 282 284 285 285 285 285 285 285 285 286 287 288 288 289 289 291 292 293 294 294 294 294 294 294 294 294 294 294 294 294 294 295 295 295 295 295 295 295 295 294 294 293
279 279 279 279 278 278 278 278 278 277 277 277 277 277 277 277 278 278 278 277 277 277 277 277 277 278 278 278 279 279 280 280 279 279 279 279 280 280 280 280 280 279 280 281 282 283 283 284 284 284 285 286 287 288 288 289 290 290 291 291 292 293 293 293 293 293 293 293 293 294 294 294 294 294 294 294 294 294 294 294 294 294 294 293 293
279 278 277 277 277 277 277 277 277 276 276 276 276 276 276 276 276 276 276 276 276 276 276 276 276 277 278 278 278 278 278 277 276 277 278 279 279 279 279 278 278 279 280 281 281 281 281 281 281 283 284 286 288 288 289 289 290 291 291 291 292 292 292 293 293 293 293 293 293 293 294 294 294 294 294 294 294 294 294 294 294 294 294 293 293
278 277 275 275 275 275 275 275 275 274 274 274 274 274 274 275 275 275 274 275 275 275 275 275 276 277 277 276 275 275 275 275 275 276 276 276 276 276 276 277 278 279 280 280 279 280 280 280 281 282 283 285 287 288 289 289 290 290 291 291 291 292 292 292 293 293 293 293 293 293 293 293 294 294 294 294 294 294 294 294 294 294 294 293 293
276 275 274 274 274 273 273 273 273 273 273 272 272 272 272 273 274 274 274 273 273 273 274 274 275 275 274 273 274 274 274 273 274 274 274 274 274 275 275 276 277 278 279 280 280 280 281 281 282 283 285 287 288 289 289 290 290 290 291 291 292 292 292 292 292 292 293 293 293 293 293 293 293 293 293 293 293 293 293 293 293 294 294 293 293
273 273 273 273 272 272 272 271 271 271 271 271 271 271 271 271 272 272 273 273 272 272 273 273 272 271 271 272 273 272 272 272 273 273 273 273 274 275 276 277 278 279 280 280 281 281 282 283 284 284 284 285 285 285 286 287 289 290 290 291 291 291 291 291 292 292 292 293 293 293 293 293 293 293 293 293 293 293 293 293 293 294 293 293 293
273 273 272 272 271 272 271 271 271 271 270 270 270 270 270 270 270 270 271 271 271 271 271 270 269 269 270 270 270 269 270 271 272 272 273 273 274 275 276 276 277 277 278 278 278 278 279 280 281 282 282 282 283 283 284 285 287 288 289 289 290 291 291 291 291 291 292 292 292 293 293 293 293 293 293 293 293 293 293 293 293 293 293 293 293
273 273 272 271 271 271 271 270 270 270 269 269 269 269 269 269 269 269 269 269 269 268 268 268 268 268 268 267 268 269 270 271 271 271 271 272 273 273 273 273 274 274 274 274 274 274 274 275 276 278 280 280 281 282 282 283 283 284 285 286 287 287 288 289 290 291 291 291 292 292 292 293 293 293 293 293 292 292 293 293 293 293 293 293 293
272 272 271 270 270 269 269 269 268 268 267 267 267 267 267 267 267 267 267 266 266 267 267 267 267 267 267 267 268 269 269 268 268 268 268 269 270 270 271 271 271 271 271 271 271 272 272 273 275 276 276 276 277 277 278 278 279 279 280 281 281 282 283 284 286 287 288 289 290 291 292 292 292 292 292 292 292 292 292 293 293 293 293 293 293
270 270 269 269 268 268 267 267 266 265 265 265 265 265 265 265 265 265 265 265 265 266 265 265 265 265 266 266 266 266 265 265 265 265 266 267 268 269 269 268 268 268 269 269 270 271 271 272 272 272 272 272 272 273 273 274 275 275 276 277 277 278 279 280 281 282 282 283 284 287 289 291 292 293 292 292 292 292 292 292 292 293 293 293 293
269 268 268 267 266 266 265 264 264 263 263 263 264 263 263 263 263 263 264 264 264 263 263 263 264 264 264 264 263 263 262 263 263 264 264 265 266 266 265 266 266 267 268 268 268 268 268 268 268 268 268 268 268 268 269 271 272 273 274 274 275 276 277 277 278 278 279 279 280 281 283 286 288 290 292 293 293 292 292 292 293 292 292 293 293
268 268 267 265 264 263 263 263 262 262 262 262 262 261 261 261 262 262 262 262 261 262 262 262 263 262 262 261 261 261 261 261 262 262 262 263 263 263 263 264 265 265 265 264 264 264 264 264 265 265 265 265 266 267 268 269 270 270 271 272 273 274 275 275 275 276 276 277 277 278 279 280 282 284 287 290 292 293 293 292 292 293 292 292 292
267 266 265 263 262 262 262 262 261 260 260 260 260 260 260 260 260 260 260 260 261 261 261 260 260 260 260 260 260 260 260 260 260 260 260 260 260 261 261 262 262 261 261 261 261 261 261 261 261 261 262 263 264 265 265 266 266 266 268 269 270 271 272 273 274 274 275 275 275 276 277 277 278 280 281 283 286 290 293 293 292 292 292 292 292
265 265 264 263 262 262 261 260 259 259 258 258 258 258 258 258 259 259 259 259 259 259 259 258 258 258 258 258 258 258 258 258 258 258 258 258 259 259 259 259 258 258 258 258 258 258 258 258 259 259 260 261 261 262 262 263 264 264 266 267 268 269 270 271 272 272 273 273 274 275 275 276 277 278 278 279 281 284 289 291 292 293 292 292 292
264 264 263 262 262 261 259 258 257 257 257 257 257 257 257 257 257 257 257 257 257 257 257 257 257 257 257 257 257 257 257 257 257 257 257 257 257 257 257 257 256 256 256 256 256 257 257 257 257 258 258 258 258 259 260 261 261 262 263 263 265 266 268 269 269 270 270 271 271 273 274 274 275 276 276 278 279 281 282 285 289 292 292 292 291
263 262 262 262 261 259 258 257 256 256 256 256 256 256 256 256 256 256 256 256 256 256 256 256 256 256 256 256 256 256 256 256 256 256 256 256 256 256 255 255 255 255 255 255 255 255 255 256 256 256 256 256 257 257 258 258 259 260 261 262 264 265 266 266 267 268 268 268 269 269 271 272 273 273 275 277 279 280 280 281 284 288 290 290 290
261 261 260 260 259 258 256 255 255 255 255 255 255 255 255 255 255 255 255 255 256 256 256 256 256 256 256 256 255 255 255 255 255 255 255 255 255 255 255 255 255 254 255 255 255 255 255 255 255 255 255 256 256 256 257 258 258 259 260 261 262 263 263 264 265 265 266 266 266 266 267 269 270 272 274 276 278 279 279 280 282 284 286 287 288
260 260 259 259 258 257 256 255 255 255 255 255 255 255 255 255 255 255 255 255 255 255 255 255 255 255 255 255 255 255 255 255 255 255 255 255 255 254 254 254 254 255 255 255 255 256 255 255 256 256 256 256 257 257 257 258 258 258 259 259 260 260 261 262 263 263 264 265 265 265 266 267 268 270 272 275 276 277 278 280 281 283 284 285 286
260 260 259 258 257 256 256 255 255 255 255 255 254 254 255 255 255 255 255 255 255 255 255 255 255 255 255 255 255 255 255 255 255 255 255 255 255 255 255 255 255 255 256 256 256 256 256 256 256 256 257 257 257 257 257 258 258 258 258 258 258 259 260 261 262 262 262 263 263 264 265 266 267 270 272 274 274 276 278 280 281 282 283 283 284
260 260 259 257 256 256 256 256 255 255 255 255 255 254 255 255 255 255 255 255 255 255 255 255 255 255 255 255 255 255 255 255 255 255 255 255 255 255 255 255 256 256 256 256 256 256 256 256 256 256 256 257 257 257 258 258 258 258 258 258 258 258 259 260 261 261 262 263 263 264 265 266 267 270 272 272 273 275 277 279 280 280 281 281 281
260 260 259 258 257 256 256 256 256 256 255 255 255 255 255 255 255 256 256 256 255 255 255 255 255 255 255 255 255 255 255 255 255 255 255 255 255 255 255 256 256 256 256 257 257 256 256 256 256 256 256 257 257 257 257 258 258 258 258 258 257 257 258 259 260 261 262 263 263 264 265 266 267 269 270 272 273 275 277 278 279 279 279 279 278
259 259 259 258 258 257 257 256 256 256 256 256 256 256 256 256 256 256 256 256 256 255 255 255 256 256 256 256 256 256 256 256 255 255 256 256 256 256 256 256 256 256 256 257 257 257 256 256 256 257 257 257 257 258 258 258 259 259 259 258 258 258 258 259 260 261 262 263 263 264 265 266 267 269 270 272 273 275 276 277 277 277 277 276 275
259 259 258 258 258 257 257 257 257 257 257 256 256 256 256 256 256 256 256 256 256 256 256 256 256 256 256 256 256 256 256 256 256 256 256 256 256 256 256 256 256 256 256 256 257 257 257 257 256 257 257 258 258 258 258 259 259 259 259 259 259 259 259 260 260 261 262 263 264 265 266 267 268 269 271 272 273 274 275 276 276 275 274 274 272
259 258 258 258 258 257 257 257 257 257 257 257 256 256 256 256 256 256 256 256 256 256 256 256 256 256 256 256 256 256 256 256 256 256 256 256 256 256 256 256 256 256 256 256 257 257 257 257 257 257 257 258 258 258 258 259 259 259 259 260 260 260 260 260 260 261 262 263 264 265 266 267 268 269 270 271 272 273 273 274 273 273 272 271 270
Wind_Speed
20 19 19 19 19 19 19 19 19 20 21 22 22 22 21 21 21 21 22 22 22 23 24 25 25 25 26 27 27 27 27 28 28 29 31 32 31 31 30 30 32 33 33 33 34 34 35 35 35 34 33 33 33 32 32 32 32 33 33 33 34 34 35 36 41 45 44 41 39 36 33 33 35 37 37 38 37 36 35 33 31 30 29 29 29
20 20 20 20 20 21 21 21 21 21 21 21 21 21 21 21 22 22 23 23 23 24 25 25 26 26 27 28 28 28 29 29 29 30 31 33 33 33 33 33 34 34 34 35 35 35 36 38 38 37 35 36 36 36 35 34 34 35 35 35 36 35 36 37 40 43 45 43 41 40 36 34 36 36 37 38 37 37 37 36 34 33 32 31 31
22 22 22 22 23 23 23 24 23 23 23 23 23 22 22 22 23 24 25 25 25 26 26 27 27 28 28 28 28 29 29 29 30 31 32 33 34 34 34 35 36 36 37 37 37 36 37 39 40 39 38 39 40 39 38 38 37 38 38 38 38 37 36 37 39 42 44 43 42 42 40 37 37 36 36 37 37 37 38 38 36 35 34 34 34
24 24 25 25 25 25 26 26 26 26 26 26 26 25 25 26 26 27 27 27 28 28 29 30 30 31 31 31 31 31 30 30 30 31 32 33 34 34 35 36 37 38 39 39 39 39 39 40 41 40 40 42 43 42 42 41 41 41 41 40 41 40 37 37 39 41 43 44 43 42 42 41 40 38 37 37 37 37 39 39 38 38 36 35 35
28 28 28 28 28 28 29 29 29 29 29 29 29 28 29 29 30 31 31 31 32 32 33 34 34 35 35 35 35 34 34 33 33 33 34 34 34 35 35 36 37 38 40 40 41 41 42 43 43 42 42 44 45 45 45 44 44 44 44 44 44 43 40 39 40 40 42 45 44 42 42 43 43 41 39 39 38 38 39 40 40 39 39 38 37
31 31 32 32 32 31 31 31 31 30 30 30 31 31 31 32 32 33 34 34 35 36 36 37 37 37 37 37 37 37 37 37 37 37 36 36 36 37 37 37 38 38 39 40 41 42 43 45 45 44 45 46 46 47 46 47 47 47 47 47 46 46 44 42 41 41 43 45 44 44 44 45 45 44 42 40 40 40 40 41 41 41 41 41 40
34 34 35 35 35 34 32 32 32 31 31 31 31 32 32 32 33 34 34 35 36 37 37 37 37 37 38 38 38 38 38 38 39 39 39 39 39 39 39 39 39 39 39 39 40 41 43 44 45 46 47 48 48 48 47 48 49 49 49 49 49 48 48 46 44 43 45 45 45 45 46 46 46 46 45 41 41 42 41 42 43 42 42 42 41
34 35 36 37 37 35 34 33 33 32 33 32 32 32 32 33 33 34 34 35 36 36 36 37 37 37 38 38 38 38 38 38 39 39 40 39 40 40 40 40 40 40 40 40 40 41 42 43 45 46 47 48 49 49 49 49 49 50 50 50 51 51 51 49 47 47 47 47 47 47 47 47 47 47 46 43 43 45 44 44 45 43 42 42 41
34 34 35 36 36 35 34 34 33 33 33 32 33 33 33 33 34 34 34 35 35 36 36 36 37 37 37 37 38 38 38 39 40 40 39 39 39 40 40 40 40 40 41 41 42 42 43 43 44 45 46 47 48 49 50 50 50 51 52 51 52 53 53 52 51 50 49 50 50 49 49 50 50 49 49 48 48 48 45 44 46 45 42 43 43
33 33 33 33 34 34 34 33 33 33 32 32 32 32 32 33 33 33 33 33 34 34 34 35 35 36 36 36 36 36 37 38 38 38 38 38 39 39 39 40 40 40 41 42 43 43 44 45 45 45 46 46 47 48 49 50 51 53 53 53 53 54 54 54 54 53 52 53 54 52 52 54 53 51 51 50 48 48 46 46 47 46 43 45 47
31 31 31 31 31 32 32 32 32 32 32 31 31 31 32 31 32 32 32 32 32 32 33 33 33 34 34 35 35 35 35 35 35 35 36 36 37 38 38 39 39 40 41 43 44 44 45 45 46 46 46 46 47 48 49 50 51 53 54 54 54 55 56 56 57 56 55 56 56 55 55 56 55 52 52 51 49 48 49 47 47 47 45 46 48
29 29 28 29 29 29 30 30 31 31 31 31 32 32 33 33 33 34 34 34 34 33 33 33 33 33 33 33 34 34 34 33 33 34 35 34 34 35 36 38 39 40 42 43 45 45 45 46 47 47 47 47 47 48 49 50 51 52 53 54 54 55 56 58 59 59 58 59 59 59 59 58 56 55 54 53 51 49 49 48 48 48 47 47 49
27 27 26 27 27 28 28 29 30 31 31 31 32 32 33 33 34 35 35 35 36 36 36 36 35 35 34 34 34 34 33 32 32 34 34 35 34 34 35 36 38 40 42 43 45 46 46 46 47 48 48 47 48 48 49 50 51 51 52 53 54 55 56 58 60 60 60 60 61 62 63 60 59 58 56 53 52 49 48 50 49 48 48 49 48
26 26 26 26 27 27 29 29 30 31 31 31 32 32 32 33 33 33 34 34 35 35 35 36 36 36 36 36 36 35 34 33 33 33 34 35 35 35 36 37 38 40 41 43 44 45 46 46 47 48 47 47 47 48 48 49 50 51 53 54 55 56 57 58 59 60 62 63 64 66 66 63 62 61 57 54 54 53 52 51 50 50 50 49 47
25 26 26 27 28 28 29 30 30 31 31 31 32 32 32 32 33 33 33 33 33 34 34 34 35 35 35 36 37 37 35 34 33 33 33 34 35 36 37 38 39 40 40 41 43 44 45 45 46 47 47 47 47 46 47 48 49 50 53 54 56 56 57 59 59 60 62 64 66 68 68 66 65 64 60 57 57 57 54 53 52 50 48 46 46
25 26 28 29 29 30 30 31 31 31 31 31 31 31 31 32 32 33 34 34 33 34 34 34 35 35 35 35 36 37 36 34 34 34 33 33 33 35 36 38 39 40 40 40 41 42 43 43 45 47 47 47 47 45 45 46 47 50 52 54 55 57 59 60 59 59 60 62 64 66 66 66 65 65 63 60 59 58 55 52 52 49 46 46 48
25 27 29 29 30 30 30 31 31 30 30 30 30 31 31 31 31 32 33 34 34 34 35 35 35 35 35 35 36 37 37 34 34 34 34 33 34 36 37 38 40 41 41 41 40 41 41 40 42 44 46 47 46 45 44 43 45 49 51 53 54 57 60 60 58 59 61 61 62 63 64 64 64 65 64 62 61 59 54 54 54 51 48 49 52
27 29 30 30 30 30 30 30 30 30 30 30 31 31 31 31 32 32 33 34 34 34 34 34 34 33 34 35 35 36 37 35 33 33 33 33 35 37 39 41 43 44 45 45 44 43 43 41 40 41 44 45 44 43 42 41 44 48 50 51 54 57 59 58 57 59 60 60 61 62 62 62 63 64 65 64 64 61 58 59 57 52 50 53 54
31 31 31 31 31 31 31 31 31 32 32 32 32 33 33 33 33 33 33 35 35 36 35 36 36 35 34 35 35 36 37 36 35 35 34 34 34 36 38 40 43 44 46 47 47 47 46 46 45 44 45 45 44 41 39 39 41 45 47 49 53 58 58 54 54 56 57 57 60 61 61 62 62 63 64 65 65 64 64 63 60 55 54 56 55
31 32 32 32 31 32 32 33 33 34 34 35 35 35 35 35 36 37 37 38 38 39 39 40 41 41 39 39 39 39 40 40 39 38 37 37 36 36 38 40 42 44 46 47 47 47 47 46 46 45 45 46 45 43 40 38 39 42 44 47 53 56 55 52 52 53 53 55 58 59 60 62 62 62 63 63 65 66 67 66 63 61 60 59 57
30 31 32 32 33 33 33 34 34 35 36 36 36 36 36 38 39 40 40 40 41 42 43 43 44 44 43 42 42 42 42 43 43 42 41 41 40 39 39 40 41 42 45 47 48 48 48 47 46 45 45 45 46 44 43 41 39 41 44 48 51 53 52 51 52 52 52 54 56 56 59 61 62 62 63 63 64 65 66 67 67 66 65 64 61
31 31 32 32 33 33 34 34 35 35 36 37 37 37 38 39 40 41 41 42 43 44 44 44 45 46 45 43 42 43 43 44 44 44 43 43 43 42 41 40 40 41 44 48 50 50 49 49 49 48 47 47 47 47 46 44 42 43 46 48 50 50 50 51 52 52 53 54 55 56 59 60 61 62 63 63 64 64 65 67 68 68 69 68 65
31 32 33 33 33 34 35 35 35 36 37 38 37 38 40 41 42 42 43 44 45 46 46 46 46 47 46 45 44 45 46 46 45 45 45 45 45 43 41 40 40 39 42 47 51 52 52 52 53 52 51 51 50 50 49 47 46 46 48 49 50 50 49 50 52 53 54 54 55 57 60 62 62 62 63 63 63 63 64 65 67 67 67 67 66
33 33 34 35 35 36 37 37 37 38 39 39 39 41 43 44 44 44 44 45 46 47 47 46 46 46 47 49 50 50 48 47 47 47 47 46 45 43 41 40 40 40 42 46 50 53 54 54 54 54 54 53 53 51 51 50 49 49 49 50 50 49 49 51 53 54 54 55 56 59 62 63 63 63 63 63 61 60 61 62 64 65 65 65 66
33 34 35 36 38 39 39 40 40 41 41 41 40 42 45 46 45 45 45 46 46 47 48 48 47 47 50 54 55 54 52 49 47 46 45 44 43 42 41 41 43 45 46 48 51 52 54 55 56 56 56 56 55 55 54 54 53 53 52 51 50 49 49 51 52 53 54 56 58 60 63 64 64 62 61 59 57 57 58 59 60 61 61 62 63
35 36 37 38 39 40 42 43 43 44 44 43 42 43 44 45 46 47 47 46 46 48 50 50 49 50 53 55 56 57 57 54 49 44 42 40 40 41 43 47 49 49 48 49 51 53 55 57 58 59 58 57 57 57 58 58 57 57 56 55 53 51 50 51 52 53 54 57 59 61 62 64 63 60 57 55 55 56 57 56 57 58 59 59 60
39 40 41 43 43 44 45 46 47 48 47 46 44 43 43 44 46 48 48 47 48 50 51 50 50 52 54 55 57 60 60 56 49 44 41 42 45 47 49 50 48 46 46 49 51 53 57 60 62 62 62 61 60 59 59 59 59 59 59 57 55 52 52 51 51 52 54 55 57 58 60 60 59 57 56 55 55 57 56 54 54 56 57 56 56
43 45 47 48 48 48 49 49 49 49 49 47 44 42 42 43 45 47 47 46 48 51 52 50 50 50 51 56 60 61 58 54 50 48 48 51 53 53 51 48 47 50 53 54 53 54 55 57 60 62 63 63 62 61 61 60 60 59 58 56 54 52 50 50 50 51 52 54 54 55 55 55 55 56 56 55 54 56 56 53 54 57 56 52 52
45 47 49 51 51 51 50 50 50 50 50 49 47 45 44 43 44 48 50 49 47 46 47 50 53 53 53 53 54 54 56 58 59 58 57 56 55 54 55 57 58 60 58 54 52 52 53 55 58 60 61 62 61 60 60 59 58 58 56 55 53 51 49 48 48 50 52 52 52 53 53 54 55 55 55 54 55 56 55 52 53 56 54 51 52
46 49 51 52 52 51 51 51 51 50 49 50 51 52 52 49 48 48 51 53 51 46 46 51 52 50 49 49 49 50 56 62 64 62 60 57 54 54 57 60 61 60 57 55 55 56 57 58 59 59 59 59 58 58 58 57 57 56 55 54 53 51 50 50 50 51 52 51 51 52 52 53 54 55 54 54 55 56 54 52 53 54 53 52 54
47 51 52 52 51 51 51 51 51 50 49 49 51 54 57 59 58 54 50 51 52 55 56 54 45 39 43 51 55 56 59 60 60 59 60 61 61 60 59 58 57 56 55 55 56 57 57 58 59 58 58 58 58 58 58 56 55 54 54 54 53 51 50 51 51 52 52 52 52 53 53 53 54 54 54 54 55 54 53 51 51 53 54 55 56
49 52 53 52 52 52 51 50 50 51 52 52 53 54 56 59 62 63 58 53 51 52 51 47 44 46 51 51 49 51 57 60 60 60 60 61 61 60 59 57 56 55 54 52 54 55 55 55 55 53 51 51 52 52 52 53 53 53 52 52 51 50 49 50 51 52 52 52 53 54 53 53 54 54 54 54 54 54 53 51 50 52 55 56 57
51 52 53 53 53 54 52 51 51 52 52 53 53 53 53 53 56 61 63 61 58 51 42 41 49 55 52 45 43 47 53 54 54 55 56 57 56 56 56 55 52 50 48 45 46 47 47 47 47 47 47 49 52 54 55 55 54 52 51 51 51 52 51 51 50 50 51 52 53 54 54 54 54 54 54 54 54 54 53 52 51 51 52 54 57
52 53 53 52 52 52 52 52 52 52 51 50 51 51 51 51 51 53 56 60 62 60 55 55 54 48 42 45 52 54 50 45 44 46 49 51 50 49 50 49 47 44 42 42 44 45 45 46 48 49 51 53 55 55 56 56 56 55 55 54 53 51 50 50 51 51 51 50 51 52 53 54 54 53 53 54 54 53 54 53 52 51 51 53 56
52 53 53 51 49 50 52 52 51 49 48 49 49 49 49 49 47 47 49 53 57 60 63 62 56 49 49 53 53 46 40 40 44 47 48 47 46 47 52 55 56 54 52 51 52 52 52 53 53 52 52 53 53 52 53 54 55 55 54 53 51 48 48 49 50 50 50 50 51 52 52 52 53 54 54 55 54 54 54 54 53 52 51 52 54
52 53 53 51 50 51 51 49 47 46 47 47 46 44 43 43 43 44 48 51 52 54 56 58 59 61 60 53 42 37 39 45 48 48 48 48 46 46 47 48 49 52 54 55 56 55 53 50 48 47 48 50 50 51 52 53 53 53 52 52 52 50 49 49 48 48 49 50 50 51 51 52 52 52 53 55 56 56 56 55 54 53 52 52 53
52 52 52 51 51 51 49 45 44 45 46 45 43 43 43 44 44 44 46 47 47 48 51 55 59 60 57 49 45 49 52 51 47 44 43 43 41 38 38 41 46 50 52 52 51 50 48 46 44 44 45 47 49 51 53 55 57 58 57 56 55 53 53 53 53 53 53 52 48 46 47 50 52 52 52 53 54 55 56 56 54 53 53 53 53
52 52 51 50 49 47 46 45 46 47 45 43 42 43 43 43 41 40 41 43 44 46 49 51 50 50 51 53 56 58 56 53 49 46 42 40 38 40 45 48 47 44 43 44 45 48 50 52 53 53 53 53 55 56 56 57 57 57 56 55 54 52 52 53 53 53 53 53 53 52 49 46 46 47 49 52 53 54 55 55 54 53 52 52 52
52 52 50 48 47 47 47 48 47 45 44 43 42 42 42 41 40 40 41 44 45 45 45 45 45 46 50 54 55 54 54 54 53 50 46 43 43 44 45 44 42 43 47 51 53 54 56 59 60 61 62 62 60 56 53 51 51 51 52 53 53 53 53 54 54 53 51 50 53 55 55 52 49 47 46 48 50 52 54 54 54 53 52 50 50
51 51 49 48 48 49 48 46 43 41 40 40 40 40 40 39 39 40 41 42 42 42 42 43 45 47 49 49 48 49 51 52 51 49 48 48 47 45 42 41 44 50 54 55 55 55 56 58 60 60 60 58 55 54 54 55 55 55 55 55 56 58 58 57 56 55 54 53 52 52 53 54 53 51 50 51 50 50 53 55 54 53 52 51 51
49 50 50 50 49 48 45 42 39 37 37 37 37 37 36 36 37 38 38 39 39 40 41 43 44 45 45 44 44 45 47 48 48 48 48 47 47 47 46 46 48 50 51 51 53 54 55 56 56 54 54 53 54 56 58 59 58 57 55 55 55 55 54 53 52 53 54 55 54 53 52 53 53 52 52 54 54 51 49 51 54 54 52 51 50
47 49 49 49 47 45 42 39 37 36 36 36 35 34 34 34 34 34 35 37 38 39 40 42 43 43 43 43 43 43 44 45 45 46 47 47 48 49 50 50 50 50 50 51 52 52 53 53 53 53 54 56 56 56 55 55 56 56 56 57 57 56 56 56 56 56 55 54 53 55 55 54 54 54 53 54 54 53 50 47 47 50 51 50 50
46 46 46 45 43 40 38 37 36 36 35 35 34 33 32 33 34 34 36 37 37 37 39 41 42 43 43 43 43 43 44 45 45 45 47 48 49 50 52 53 52 52 51 51 50 50 50 52 52 53 54 54 54 53 53 54 55 56 56 55 54 54 55 57 58 60 60 58 55 54 55 54 54 54 53 52 52 53 51 49 46 44 45 47 48
43 43 41 40 38 37 35 35 35 35 34 33 33 33 33 34 36 37 38 38 37 36 38 40 41 43 44 45 45 45 45 46 46 46 47 47 49 51 52 52 53 52 51 51 50 48 48 49 50 50 51 51 50 50 50 50 51 51 52 53 54 55 57 60 62 64 67 68 65 61 58 56 54 53 51 48 49 51 51 49 47 43 39 39 41
41 39 37 36 35 34 34 34 34 34 34 35 36 36 35 35 37 38 38 37 38 38 39 40 41 42 44 46 46 46 46 47 47 47 47 48 49 50 50 50 51 51 51 51 50 49 48 48 48 48 48 48 47 46 46 46 47 48 48 50 52 55 57 60 61 62 63 65 64 59 55 53 52 51 49 48 49 50 49 46 45 43 41 39 39
37 36 34 33 33 33 34 34 35 35 35 36 37 38 37 37 37 37 37 37 38 38 40 41 41 42 43 44 45 46 46 47 47 47 47 47 48 48 48 49 50 51 51 51 51 50 48 47 46 46 46 46 45 45 45 45 45 46 46 46 48 50 50 51 52 52 53 54 53 52 51 52 51 50 50 49 48 48 46 43 41 41 41 41 40
33 32 31 31 32 33 33 34 34 35 35 36 36 37 37 37 37 36 37 37 37 38 39 41 41 42 43 44 44 45 45 46 47 47 47 47 47 47 47 47 49 51 52 52 51 50 48 46 45 45 44 44 44 44 44 44 44 45 46 46 47 48 48 48 47 46 46 46 45 45 47 47 47 46 45 44 44 45 44 40 38 38 39 39 39
30 30 29 30 31 32 32 33 34 34 35 35 35 35 35 36 36 36 37 37 38 38 39 40 41 42 43 43 43 44 45 45 46 46 46 46 45 45 45 46 48 50 51 51 51 49 47 45 44 43 42 42 42 42 43 43 43 43 44 45 46 47 47 47 45 42 40 39 39 39 40 40 41 40 40 41 43 44 41 37 35 36 37 37 37
28 28 28 28 29 30 31 32 33 33 34 34 35 35 35 35 35 36 36 37 38 38 39 40 40 41 42 43 43 44 44 45 45 45 45 45 44 43 44 45 47 49 50 50 50 48 46 44 44 42 41 40 41 41 41 42 42 42 44 45 46 46 45 42 40 38 36 35 35 35 35 36 37 36 36 38 41 41 37 34 33 34 35 35 36
27 26 27 27 28 29 30 30 31 31 32 33 34 34 35 35 35 35 36 37 38 38 38 39 40 41 41 42 43 44 44 44 45 45 45 44 43 42 43 44 46 47 47 48 48 47 44 43 43 43 41 40 41 41 42 42 43 44 45 46 45 43 40 37 35 33 32 31 30 29 29 31 32 33 33 35 36 35 34 32 32 32 34 35 36
27 26 26 27 28 28 29 30 30 30 31 31 32 34 34 34 35 35 35 36 37 38 38 39 39 40 41 41 42 42 43 43 44 44 44 44 43 43 43 43 43 44 44 45 46 45 43 42 42 43 41 40 40 41 41 41 41 41 43 46 46 44 39 35 32 30 27 25 24 23 23 24 25 26 27 28 30 30 30 30 31 32 33 35 37
Wind_Direction
320 317 314 313 314 314 314 313 313 313 312 312 313 315 317 316 316 315 312 311 311 309 307 306 305 303 300 297 295 294 292 290 290 289 288 287 286 284 282 280 278 278 278 277 276 275 274 273 272 272 271 270 269 268 268 267 268 268 267 267 267 266 266 263 264 273 281 281 279 280 279 277 276 276 276 278 280 280 280 279 277 274 271 268 268
324 319 314 312 311 311 310 310 310 309 308 308 308 310 312 313 313 311 308 309 310 308 307 308 307 305 303 301 300 298 295 293 292 290 287 286 286 285 284 283 281 280 279 277 276 276 275 274 273 272 272 271 271 269 269 269 268 268 268 267 268 267 266 265 265 269 278 283 281 279 279 276 274 274 274 276 278 280 279 279 277 275 272 269 267
322 318 313 309 307 306 304 304 304 303 303 304 303 303 304 304 304 303 302 303 303 303 303 303 302 301 299 298 298 298 297 296 294 292 290 288 287 285 285 284 282 281 280 279 279 277 276 275 274 273 272 271 271 270 270 270 269 269 269 269 269 269 268 267 266 267 274 282 281 279 279 278 276 276 276 276 277 277 277 277 277 275 273 270 267
319 315 311 308 305 303 301 300 299 299 299 299 299 299 299 298 298 298 298 299 298 298 299 298 298 297 295 294 294 293 293 293 293 291 290 290 289 287 286 284 282 281 281 280 280 279 278 276 275 274 273 272 271 271 270 270 270 270 270 270 269 270 270 269 268 269 272 277 280 280 280 279 278 277 276 274 275 275 276 277 277 276 274 272 269
318 316 313 309 307 306 304 302 301 300 299 298 297 297 296 296 295 296 297 297 297 297 298 297 297 296 295 293 292 291 290 290 289 289 288 288 288 288 286 285 283 282 281 281 280 280 279 278 277 276 275 273 272 271 271 270 270 270 271 271 270 270 271 269 269 270 270 272 277 281 280 278 277 277 275 272 272 273 274 275 275 276 275 274 271
318 318 316 314 313 311 310 308 307 305 304 302 300 299 298 297 296 297 297 297 297 297 297 297 297 296 296 295 293 292 291 290 288 288 287 287 287 287 286 286 285 284 284 283 282 281 280 279 279 278 276 275 273 273 272 272 271 271 271 271 272 271 270 269 269 269 269 271 275 278 278 276 276 276 275 272 271 272 272 273 273 274 273 272 272
318 317 317 317 317 316 314 312 311 310 308 306 305 303 301 300 299 299 299 298 298 298 298 298 297 297 296 296 295 294 293 291 290 288 287 288 288 287 287 287 287 286 285 285 283 282 281 280 279 278 277 276 276 275 274 273 272 272 271 271 272 271 269 269 268 267 267 269 271 274 275 276 276 276 275 273 270 269 269 268 269 272 273 273 274
317 317 317 318 318 318 318 316 315 313 311 310 309 307 306 304 303 302 301 300 300 300 300 300 299 298 297 296 296 296 295 294 292 291 289 288 288 288 288 288 287 287 286 286 284 283 281 280 279 278 277 276 276 276 275 274 274 273 272 271 271 270 268 268 267 266 266 267 268 271 273 274 274 274 273 269 266 266 268 267 269 273 275 274 275
320 321 320 319 319 319 320 320 318 317 316 314 313 312 311 309 308 307 306 305 305 305 304 303 302 301 300 298 297 296 295 295 295 294 292 290 289 289 289 288 287 286 286 285 285 284 282 281 280 279 278 277 277 276 276 275 273 272 272 271 270 268 267 267 265 264 264 264 265 267 268 269 271 271 270 268 268 272 273 269 269 273 274 272 272
325 325 323 322 321 322 322 322 321 321 321 320 319 318 317 316 315 314 313 312 311 310 309 309 308 307 305 303 301 299 298 297 297 297 295 294 292 291 290 289 287 286 285 284 283 283 283 283 282 281 280 279 278 277 276 275 273 272 271 270 269 267 266 265 264 263 262 262 264 265 265 266 269 270 271 272 274 274 272 268 269 272 271 268 269
328 328 326 325 325 324 324 325 325 325 325 325 324 324 323 323 322 321 320 319 318 316 316 315 314 313 311 309 307 305 304 304 303 302 300 298 296 295 292 290 288 286 284 283 283 283 283 283 283 282 281 280 279 278 277 276 275 273 272 271 269 266 265 264 263 263 262 262 263 263 262 265 268 269 271 273 274 272 272 271 270 270 266 264 266
330 330 329 327 327 327 328 327 327 328 328 328 327 326 326 325 325 325 324 323 322 320 320 319 319 318 316 313 312 310 309 309 309 308 306 304 302 299 295 292 289 287 285 284 284 284 283 283 283 282 282 282 281 281 280 279 278 276 275 273 270 267 265 264 263 262 261 262 262 261 261 263 267 268 268 271 272 272 273 271 268 267 265 263 265
331 330 328 327 327 327 328 327 327 327 327 327 326 325 325 324 325 325 325 324 323 322 322 322 322 322 321 319 316 315 314 315 315 313 311 310 308 304 299 295 292 290 288 287 286 286 285 284 284 283 283 283 282 282 281 281 281 280 278 276 273 269 267 264 263 261 261 261 260 261 262 263 264 266 268 270 271 271 270 269 268 267 265 264 267
332 329 328 327 326 326 326 326 326 325 325 325 324 324 323 323 323 324 323 323 323 322 322 322 323 323 324 323 322 321 321 322 320 318 315 314 312 309 305 301 297 294 292 291 290 289 288 288 287 286 285 283 282 281 281 282 282 282 281 278 276 274 270 267 264 261 260 258 258 261 263 263 264 267 269 269 269 269 268 270 270 269 269 270 274
333 330 329 328 329 329 329 328 327 327 326 325 324 324 323 323 323 323 323 323 322 322 322 322 322 323 324 325 324 324 325 326 325 323 321 319 316 313 310 307 304 301 298 296 294 293 292 291 289 289 287 286 284 282 281 281 281 281 280 279 278 277 274 271 268 264 262 260 260 263 265 265 266 268 268 268 268 269 269 271 271 270 270 271 271
331 331 332 333 334 335 334 333 332 331 331 329 328 328 327 327 327 325 324 324 323 323 323 323 324 324 324 325 325 323 324 326 326 326 326 324 321 317 314 311 309 306 305 303 301 299 297 295 294 292 291 290 288 286 284 281 280 279 278 277 277 276 276 275 273 270 268 265 264 266 267 267 267 267 267 266 267 267 267 266 265 262 260 261 261
330 332 335 337 338 338 338 337 336 335 335 334 333 333 332 331 330 329 327 326 325 325 325 325 325 325 325 325 324 322 323 325 326 324 325 326 324 321 318 315 313 311 310 309 308 305 303 301 299 297 295 294 293 291 288 284 280 278 277 276 276 275 275 275 273 272 271 268 267 268 268 267 265 264 264 262 262 262 260 257 256 254 252 253 255
334 336 338 339 340 340 340 340 340 339 339 338 337 336 335 333 332 331 329 328 327 326 325 324 323 324 323 323 323 322 322 324 326 324 324 326 325 322 320 318 316 315 315 313 312 311 309 307 305 302 300 299 298 296 292 287 282 279 277 276 275 275 274 274 272 273 273 271 270 270 269 267 265 263 261 259 258 256 253 253 254 251 248 249 252
341 342 343 343 342 342 342 341 341 340 339 339 338 337 336 334 332 331 330 328 327 326 326 325 323 323 323 322 322 322 321 322 324 324 324 325 324 322 321 319 318 317 317 315 313 312 312 311 310 308 306 305 304 300 295 289 284 281 279 276 274 274 276 275 272 272 272 271 272 271 270 269 267 265 262 260 257 253 251 252 252 248 246 248 250
344 344 344 345 345 345 344 343 342 341 340 340 339 338 337 336 335 333 332 331 330 329 329 328 327 326 326 325 324 324 324 323 324 325 324 324 324 323 321 319 319 318 316 314 313 312 312 312 312 312 311 310 308 305 299 292 286 283 281 276 272 275 278 277 274 273 272 271 271 272 272 272 271 268 265 262 258 254 251 250 249 246 246 247 246
343 344 345 346 346 346 346 345 344 343 342 340 339 338 338 338 337 336 334 333 332 331 330 329 328 327 327 327 326 325 326 325 324 325 325 324 324 325 322 320 320 319 316 314 313 312 312 312 311 312 312 311 310 306 301 295 288 283 279 276 274 277 279 278 276 275 273 271 270 270 269 269 269 267 265 263 260 257 254 252 250 247 245 245 244
344 345 346 345 345 346 346 345 344 343 341 340 338 337 337 337 336 335 334 333 332 330 330 329 327 325 325 325 325 324 325 324 323 323 323 322 322 322 321 319 320 319 316 313 312 312 312 311 310 310 310 309 307 304 300 296 290 283 280 278 278 278 278 277 277 276 273 271 269 267 266 265 264 263 262 261 260 258 256 254 253 250 247 248 248
344 345 344 344 344 344 343 343 343 342 340 340 338 335 334 334 334 334 333 332 330 330 329 328 327 325 324 324 323 323 322 322 321 320 319 319 319 319 319 318 318 318 314 311 309 309 309 308 307 308 308 306 304 302 300 296 291 286 282 281 280 278 276 275 274 273 272 270 268 265 264 263 261 261 260 259 259 258 256 256 255 252 250 251 252
344 344 343 343 343 343 341 341 341 340 340 339 336 332 331 332 332 332 332 331 330 329 329 328 326 324 322 320 320 321 321 321 319 317 317 317 317 317 316 315 314 313 309 306 305 305 305 305 304 304 304 303 302 301 299 296 292 289 287 284 282 278 274 271 270 269 269 268 265 264 263 262 261 259 259 259 259 259 258 257 257 255 254 254 254
342 342 342 342 342 341 339 339 338 338 338 338 334 331 330 330 329 329 330 330 330 329 327 326 324 321 319 318 318 319 320 319 317 315 315 315 315 315 314 311 309 309 307 304 303 303 303 302 302 301 301 301 301 300 298 295 293 292 291 289 285 280 274 270 268 265 263 263 262 262 263 263 262 260 260 261 260 260 259 257 257 256 255 254 252
340 341 341 341 341 339 337 337 336 336 336 336 333 330 328 327 326 326 326 327 326 326 326 324 321 318 317 317 317 317 318 318 316 315 315 315 314 312 310 309 309 309 307 305 304 304 303 302 300 299 298 297 297 297 296 294 293 292 291 289 286 281 276 272 268 264 261 261 261 261 263 264 264 262 261 260 258 257 256 255 254 254 251 249 247
339 340 340 340 340 339 337 335 335 334 334 333 332 329 326 324 323 322 323 323 323 323 322 319 317 316 316 315 315 315 315 315 315 315 314 313 311 310 310 310 310 310 308 305 304 304 303 301 299 297 296 294 293 292 291 291 291 291 290 288 286 283 280 276 271 267 264 263 263 263 264 264 263 261 260 258 256 256 255 252 251 251 249 246 243
338 338 339 338 338 337 335 334 334 333 331 331 330 328 325 322 320 319 318 318 318 319 319 317 315 314 313 312 313 313 313 312 311 311 311 310 309 309 308 306 304 303 303 302 301 301 300 299 297 296 296 295 293 292 290 289 289 289 289 288 286 284 281 278 272 267 265 264 263 263 264 263 261 260 258 256 255 255 253 250 248 249 248 243 239
334 335 335 336 335 334 333 332 332 331 329 327 326 324 322 320 317 315 314 314 315 315 314 312 311 310 310 310 311 312 310 308 307 308 309 308 306 305 303 300 300 301 301 300 299 299 298 297 295 294 294 293 292 291 290 289 288 287 287 286 285 284 281 277 272 268 267 265 263 262 262 262 261 260 258 255 254 255 252 248 246 246 244 239 237
330 331 332 332 333 333 332 331 330 330 328 325 323 321 320 319 317 315 313 314 315 313 309 310 311 311 310 309 307 305 304 305 307 309 309 307 305 303 302 302 302 301 299 298 297 296 295 294 293 292 291 290 288 288 288 287 286 285 285 285 284 283 281 279 276 274 272 268 264 263 262 261 261 260 258 255 254 254 251 247 245 243 241 237 236
326 328 330 331 332 332 331 330 329 328 326 323 322 321 321 320 319 317 315 315 315 314 314 314 313 308 306 308 308 306 307 309 310 309 308 306 305 306 306 305 303 301 299 298 297 295 293 292 290 290 288 287 286 286 286 285 285 284 284 284 283 282 280 279 278 278 275 271 268 265 263 261 260 260 258 256 254 253 251 247 244 242 239 237 236
325 328 330 330 331 331 331 329 328 326 324 323 323 322 321 320 319 318 317 316 315 315 315 313 308 306 308 311 310 309 310 311 311 309 308 309 310 311 312 311 308 305 302 299 295 294 293 291 289 288 287 286 286 288 288 287 286 285 284 284 283 282 281 280 280 279 277 273 270 268 264 262 261 260 259 257 255 252 250 246 243 240 239 237 236
327 328 330 330 331 330 330 329 327 325 324 323 323 322 321 320 318 317 317 318 318 317 314 308 307 312 315 313 310 309 309 310 310 310 311 313 315 315 315 313 311 310 308 305 301 299 297 295 293 292 292 291 290 291 290 289 288 287 286 284 283 282 281 281 280 279 277 274 271 268 265 264 263 261 260 258 255 252 250 247 243 240 238 237 236
327 328 329 330 330 329 328 327 326 325 323 323 323 322 321 320 318 317 318 319 320 318 315 313 314 316 314 310 312 315 315 312 311 313 315 317 318 318 317 314 312 310 311 310 308 306 305 303 301 299 298 295 292 291 291 290 289 290 289 287 285 284 284 283 281 278 275 275 273 270 267 265 263 261 260 258 256 253 250 248 245 240 237 236 236
327 327 328 329 328 327 327 327 326 325 324 324 323 322 321 320 319 317 317 318 317 316 316 317 318 316 314 316 320 323 320 316 317 318 316 312 310 311 311 310 308 308 308 307 307 307 306 304 302 299 298 298 298 298 298 297 297 297 296 295 294 293 292 289 285 280 276 273 272 270 268 266 264 262 260 258 256 254 251 249 247 243 239 236 236
328 328 329 329 328 327 328 328 327 326 325 324 323 321 319 319 318 316 316 317 317 317 317 317 316 316 320 326 329 323 316 315 316 316 313 310 310 313 314 313 313 313 312 310 309 308 308 307 305 303 303 304 305 305 305 305 304 304 303 304 305 303 300 297 293 290 288 283 275 270 268 265 264 264 261 258 256 254 253 251 249 246 242 239 237
330 330 329 329 329 329 329 328 327 325 324 323 321 319 318 318 318 318 318 319 319 317 316 316 317 321 325 327 323 318 318 320 320 319 319 320 322 322 320 317 316 314 312 312 313 312 312 313 313 313 313 312 310 309 307 306 305 304 302 303 304 304 302 300 296 295 298 298 292 285 277 269 264 262 261 259 257 255 254 252 250 248 245 242 239
330 329 329 329 329 329 328 326 324 324 323 322 321 320 319 319 319 319 318 318 318 317 317 319 321 323 322 320 320 323 326 327 326 326 327 327 325 321 319 319 320 318 316 317 318 318 318 316 315 314 314 312 310 310 308 306 305 305 304 304 303 302 301 301 298 298 301 302 301 299 295 287 277 269 263 258 256 256 256 254 251 248 247 244 240
329 328 328 328 328 327 326 324 324 325 324 323 323 322 322 321 320 320 319 319 320 321 321 322 321 319 319 321 324 328 329 327 327 327 327 326 325 324 324 325 324 320 318 317 317 317 316 314 311 310 309 309 310 312 311 308 306 305 303 302 300 299 298 299 298 298 300 301 300 300 300 298 295 290 281 271 263 258 256 255 252 249 246 244 241
328 328 328 327 327 327 327 327 327 327 326 324 323 323 322 322 321 321 321 322 322 322 321 320 319 320 321 323 326 328 327 325 325 325 324 324 325 325 324 323 320 317 316 316 316 315 314 311 309 308 309 309 309 307 304 301 302 302 301 299 298 297 296 295 294 293 294 295 296 297 297 297 298 297 295 292 284 271 260 255 253 250 247 244 241
328 328 328 328 329 330 331 330 329 328 326 324 324 324 324 323 323 323 322 321 321 320 320 320 320 321 322 323 324 326 325 323 323 323 323 324 324 323 322 321 320 320 319 317 316 315 314 313 312 310 309 308 305 302 301 301 302 302 301 299 298 297 295 293 292 292 292 291 291 291 292 294 295 294 295 297 296 289 277 264 253 249 248 246 241
329 329 329 330 332 332 331 330 329 328 327 327 327 327 326 325 324 323 322 322 321 321 321 321 322 322 323 323 325 326 326 325 324 324 324 323 323 322 322 322 322 321 320 318 317 317 315 314 312 309 308 307 306 305 304 303 301 300 299 298 297 295 293 292 291 291 291 290 289 288 287 289 290 290 291 292 292 292 292 285 268 253 247 244 239
330 331 332 333 333 333 331 330 330 329 330 329 328 327 326 326 325 325 325 324 323 322 322 323 324 324 325 326 327 328 328 328 328 327 326 325 325 325 325 325 325 324 323 321 320 319 317 315 313 311 309 309 308 305 303 301 300 300 301 301 300 297 294 292 290 289 289 290 290 289 288 287 286 286 287 287 285 285 290 294 288 271 252 240 234
333 334 335 335 336 335 333 332 332 331 330 330 328 328 328 328 328 328 328 327 326 325 325 326 326 327 328 330 331 332 332 332 331 330 329 329 329 329 329 329 329 329 328 328 328 327 324 322 320 318 316 314 313 311 308 305 304 302 300 298 296 293 290 288 287 286 286 287 288 289 288 287 287 286 283 280 280 282 284 287 289 282 264 243 231
336 337 338 338 338 337 336 335 334 333 332 332 332 332 331 331 331 331 331 330 329 329 329 329 330 330 332 334 335 336 335 335 335 334 334 333 333 333 333 334 335 336 336 336 336 335 333 331 329 328 325 324 323 321 318 315 313 310 308 304 299 295 291 289 288 287 286 286 287 287 285 283 283 281 277 273 274 277 279 280 282 278 266 250 237
339 340 342 341 340 339 338 337 337 336 335 335 334 334 334 334 334 334 334 333 333 333 333 334 335 335 336 337 337 338 338 338 338 338 338 337 337 337 338 339 340 341 341 340 340 339 338 337 336 334 332 330 328 326 324 323 322 321 319 316 312 308 302 298 295 293 290 288 285 283 281 280 278 275 274 273 273 274 274 274 274 268 257 247 236
341 342 345 345 342 341 340 340 339 338 337 336 336 335 336 336 337 337 337 337 337 337 336 337 338 338 338 339 339 339 340 340 339 340 340 340 340 341 342 343 344 344 344 344 344 343 342 341 340 339 337 335 333 329 326 325 324 323 321 321 320 317 313 308 303 298 293 290 287 284 283 282 279 276 274 274 272 269 267 264 262 255 245 235 226
342 344 346 346 344 343 343 343 342 341 340 339 338 338 339 339 339 340 340 340 340 339 339 340 341 340 340 340 340 341 341 341 341 342 343 343 344 345 346 346 347 346 346 347 347 347 346 345 344 343 342 341 339 337 333 330 328 327 325 324 323 320 317 312 307 302 298 295 291 287 285 283 279 277 275 272 267 262 257 252 247 240 231 222 214
343 345 346 346 346 345 345 343 343 343 342 341 341 341 342 342 341 341 341 341 341 341 341 342 343 343 342 343 343 343 343 343 343 344 345 346 346 347 347 348 348 348 348 348 349 349 348 348 347 347 348 349 350 349 347 345 343 342 338 334 330 326 322 318 313 308 303 299 293 288 285 282 278 275 273 267 259 251 244 238 233 227 218 209 200
344 346 346 346 346 345 345 344 343 343 343 343 343 343 342 342 342 342 343 342 342 343 343 344 344 344 345 345 345 345 345 345 345 345 346 347 347 346 346 346 348 349 349 350 350 350 350 351 352 352 353 355 356 357 355 354 354 352 349 345 341 335 328 323 319 312 307 302 298 292 286 280 274 269 263 255 245 237 229 224 218 211 204 196 188
343 344 344 344 344 344 344 343 343 343 344 345 344 343 343 343 343 343 344 343 343 344 344 345 345 346 346 346 346 346 346 346 347 347 347 348 348 347 346 346 347 349 350 351 352 353 353 352 354 355 356 357 358 359 359 358 358 357 355 355 353 348 340 331 324 320 315 309 302 292 282 272 263 255 247 238 229 222 215 208 201 195 191 184 178